Location: La Brionne
(46.1728°N, 1.7849°E)
Time: 18:35:42
(UTC+00:00)

Cosmos 1544 Rocket - Pass Details

Date: 25 October 2021
Orbit: 603 x 632 km, 82.5° (Epoch: 27 November)

Event Time Altitude Azimuth Distance (km) Brightness Sun altitude
Rises 05:03:02 0° 349° (N) 2,910 6.9 -14.6°
Reaches altitude 10° 05:05:16 10° 348° (NNW) 1,994 6.0 -14.2°
Maximum altitude 05:09:41 76° 264° (W) 639 3.4 -13.4°
Drops below altitude 10° 05:14:01 10° 178° (S) 1,960 6.2 -12.7°
Sets 05:16:12 0° 177° (S) 2,855 7.1 -12.3°
